Airport Information

KLWS - Lewiston Nez Perce Co Airport

KLWS 241456Z VRB03KT 10SM CLR 17/06 A2998 RMK AO2 SLP148 T01670061 53005


  • General Information

  • Coordinates: N 46°22'28"/ W 117°0'55"
  • Location: N/A
  • Surveyed Elevation: 1442 MSL

Operations

Flow Name Active Runways Conditions

Green background denotes normal operations.


Common Frequencies

Callsign Frequency Position Name

More at the Document Center


Charts